Location: Newark
(43.4306°N, 0.3089°E)
Time: 01:27:49
(UTC+00:00)

Vanguard 3 - Pass Details

Date: 01 September 2019
Orbit: 508 x 3262 km, 33.3° (Epoch: 17 October)

Event Time Altitude Azimuth Distance (km) Brightness Sun altitude
Rises 17:15:28 0° 266° (W) 5,587 13.5 13.5°
Reaches altitude 10° 17:20:09 10° 259° (W) 4,091 13.1 12.6°
Maximum altitude 17:28:50 35° 200° (SSW) 1,807 9.3 11.1°
Drops below altitude 10° 17:34:10 10° 135° (SE) 2,482 9.3 10.1°
Sets 17:36:21 0° 125° (SE) 3,182 9.7 9.7°
